Regional Weather Roundup
Issued by NWS

Home | Current Version | Previous Version | Text Only | Print | Product List | Glossary Off
Versions: 1 2 3 4 5 6 7 8 9 10 11 12 13 14 15 16 17 18 19 20 21 22 23 24 25 26 27 28 29 30 31 32 33 34 35 36 37 38 39 40 41 42 43 44 45 46 47 48 49 50

000
ASUS43 KLMK 272210
RWRKY
KENTUCKY REGIONAL WEATHER ROUNDUP
NATIONAL WEATHER SERVICE LOUISVILLE KY
600 PM EDT WED MAY 27 2015

NOTE "FAIR" INDICATES FEW OR NO CLOUDS BELOW 12,000 FEET
WITH NO SIGNIFICANT WEATHER AND/OR OBSTRUCTIONS TO VISIBILITY.

KYZ001>023-026-027-061>063-070>075-272300-
WESTERN AND SOUTH CENTRAL KENTUCKY

CITY           SKY/WX    TMP DP  RH WIND       PRES   REMARKS
PADUCAH        CLOUDY    77  65  66 SW9       30.08F
HENDERSON      CLOUDY    75  63  64 SW10      30.07S
OWENSBORO      CLOUDY    76  65  68 SW14      30.10S
HOPKINSVILLE   CLOUDY    74  66  75 S8        30.11S
BOWLING GREEN  CLOUDY    78  64  61 CALM      30.13R
GLASGOW        CLOUDY    71  65  80 SE5       30.13F
$$

KYZ024-025-028>034-038-045-046-053-272300-
NORTH CENTRAL KENTUCKY

CITY           SKY/WX    TMP DP  RH WIND       PRES   REMARKS
LOUISVILLE/SDF CLOUDY    71  63  75 S9        30.11R
LOUISVILLE/LOU CLOUDY    70  63  78 S8        30.12R
FORT KNOX      CLOUDY    69  64  82 S9        30.11S
$$

KYZ035>037-039>044-047>052-055>060-089>105-272300-
NORTHEAST KENTUCKY

CITY           SKY/WX    TMP DP  RH WIND       PRES   REMARKS
LEXINGTON      LGT RAIN  65  63  93 S9        30.18R
COVINGTON      CLOUDY    78  61  55 S13G22    30.09R
FRANKFORT      CLOUDY    65  62  90 S10       30.15R
$$

KYZ054-064>069-076>088-106>120-272300-
SOUTHEAST KENTUCKY

CITY           SKY/WX    TMP DP  RH WIND       PRES   REMARKS
JACKSON        MOSUNNY   80  62  54 VRB3      30.19R
LONDON         PTSUNNY   81  57  43 SW8       30.19R
SOMERSET       CLOUDY    77  61  57 W3        30.18S
MIDDLESBORO    MOSUNNY   80  63  56 S3        30.18S
MONTICELLO     CLOUDY    80  66  62 SW6       30.20S
$$




USA.gov is the U.S. government's official web portal to all federal, state and local government web resources and services.